Regional Weather Roundup
Issued by NWS Sterling, VA

Home | Current Version | Previous Version | Graphics & Text | Print | Product List | Glossary On
Versions: 1 2 3 4 5 6 7 8 9 10 11 12 13 14 15 16 17 18 19 20 21 22 23 24 25 26 27 28 29 30 31 32 33 34 35 36 37 38 39 40 41 42 43 44 45 46 47 48 49 50
000
ASUS41 KLWX 221010
RWRLWX

REGIONAL WEATHER ROUNDUP
NATIONAL WEATHER SERVICE BALTIMORE MD/WASHINGTON DC
500 AM EST MON DEC 22 2014

Note: "FAIR" indicates few or no clouds below 12,000 feet
with no significant weather and/or obstructions to visibility.
 TC=TEMPERATURE CELSIUS

 * =Non NWS site. Station does not report precipitation (e.g. rain,
    snow, etc.), thunder, or fog.

DCZ001-MDZ009-015-VAZ040>042-051-053>054-221100-
WASHINGTON METRO

CITY           SKY/WX    TMP DP  RH WIND       PRES   REMARKS
WASHINGTON NAT CLOUDY    34  24  67 NE7       30.29F
DULLES         CLOUDY    28  23  81 N5        30.28F
ANDREWS AFB    CLOUDY    29  25  84 NE6       30.27F
FT BELVOIR     CLOUDY    32  26  77 CALM      30.29F
QUANTICO       CLOUDY    34  27  75 E8        30.30F WCI  27
COLLEGE PARK*  CLOUDY    30  27  86 CALM      30.29S
LEESBURG*      CLOUDY    30  28  93 NE3       30.28F
MANASSAS*      CLOUDY    30  28  93 N3        30.28F
GAITHERSBURG*  CLOUDY    27  21  80 CALM      30.30S

$$

MDZ006>007-011-014-221100-
BALTIMORE METRO

CITY           SKY/WX    TMP DP  RH WIND       PRES   REMARKS
BWI AIRPORT    MOCLDY    28  22  78 NE3       30.29F
MD SCIENCE CTR   N/A     31  23  72 MISG      30.29F
MARTIN STATE   MOCLDY    30  27  86 CALM      30.32S
ANNAPOLIS      CLOUDY    30  26  85 CALM      30.30F FOG
FORT MEADE*    MOCLDY    25  23  93 CALM      30.31S

$$

MDZ012-015-019>023-221100-
MARYLAND EASTERN SHORE

CITY           SKY/WX    TMP DP  RH WIND       PRES   REMARKS
OCEAN CITY     CLOUDY    32  29  88 N6        30.27F
SALISBURY      CLOUDY    34  26  72 NE6       30.27F
BAY BRIDGE AP*   N/A     32  27  80 E3        30.30S
CAMBRIDGE*     CLOUDY    32  28  86 CALM      30.28F
EASTON*        CLOUDY    31  28  90 CALM      30.32F

$$

MDZ017>025-221100-
SOUTHERN MARYLAND

CITY           SKY/WX    TMP DP  RH WIND       PRES   REMARKS
PATUXENT RIVER CLOUDY    34  27  75 E9        30.27F WCI  27
ST INIGOES     CLOUDY    35  27  72 NE7       30.26F
LEONARDTOWN*   CLOUDY    32  28  86 CALM      30.29S

$$

MDZ003>005-221100-
NORTH CENTRAL MARYLAND

CITY           SKY/WX    TMP DP  RH WIND       PRES   REMARKS
FREDERICK*     PTCLDY    25  19  80 CALM      30.32R
HAGERSTOWN APT PTCLDY    22  18  85 N3        30.25S
WESTMINSTER*   PTCLDY    23  19  86 CALM      30.25F

$$

MDZ501>502-221100-
WESTERN MARYLAND

CITY           SKY/WX    TMP DP  RH WIND       PRES   REMARKS
OAKLAND*       CLEAR     21 N/A N/A SE10      30.07S FOG     WCI  10
CUMBERLAND*    PTCLDY    27  23  86 CALM      30.26S

$$

VAZ025>031-221100-
SHENANDOAH VALLEY

CITY           SKY/WX    TMP DP  RH WIND       PRES   REMARKS
WINCHESTER*    CLOUDY    30  23  74 CALM      30.23F
FRONT ROYAL*   CLOUDY    28  23  80 CALM      30.23S
LURAY*         CLOUDY    32  30  93 NE3       30.22F
NEW MARKET*    CLOUDY    29  25  86 E3        30.22S
STAUNTON*      CLOUDY    32  28  83 CALM      30.23R
WAYNESBORO*    CLOUDY    32  25  76 SE3       30.19S

$$

WVZ021-048>050-054>055-221100-
EASTERN WEST VIRGINIA PANHANDLE

CITY           SKY/WX    TMP DP  RH WIND       PRES   REMARKS
MARTINSBURG    CLOUDY    27  20  75 N3        30.26F
PETERSBURG*    CLEAR     27  26  98 CALM      30.22S FOG

$$

VAZ036>039-050-221100-
CENTRAL FOOTHILLS

CITY           SKY/WX    TMP DP  RH WIND       PRES   REMARKS
CHARLOTTESVILL CLOUDY    33  26  75 NE5       30.24S
CULPEPER*      CLOUDY    32  28  86 CALM      30.28S
ORANGE*        CLOUDY    32  30  93 CALM      30.28R
GORDONSVILLE*  CLOUDY    32  27  81 CALM      30.26R
WARRENTON*     CLOUDY    31  31  96 CALM      30.28R

$$

VAZ055>057-221100-
NORTH AND CENTRAL PIEDMONT

CITY           SKY/WX    TMP DP  RH WIND       PRES   REMARKS
FREDERICKSBRG* CLOUDY    33  30  89 N3        30.27S
STAFFORD*      CLOUDY    31  31 100 CALM      30.32R

$$

NCZ024-NYZ072-PAZ021-071-VAZ022-071-221100-
OTHER REGIONAL OBSERVATIONS

CITY           SKY/WX    TMP DP  RH WIND       PRES   REMARKS
NEW YORK CITY  CLOUDY    36  30  79 VRB3      30.34S
PHILADELPHIA   MOCLDY    29  23  78 NW6       30.32F
PITTSBURGH     PTCLDY    23  21  92 E5        30.10F
ROANOKE        CLOUDY    37  27  67 SE5       30.20F
RICHMOND       CLOUDY    37  28  70 NE5       30.23F
RALEIGH        RAIN      36  33  89 N9        30.15S FOG     WCI  29

$$

ANZ530>537-221100-
MARINE OBSERVATIONS

STATION/POSITION TIME  TEMP    WIND        PRES
                       AIR SEA DIR/SP/G
                 (UTC) (F)     (DEG/KT/KT) (MB)
THOMAS PT LIGHT  1000   33 41   80/  9/ 10 1026.7F
BALT KEY BRIDGE  1000   30      50/  6/  7 1025.9S
COVE POINT       1000   33      90/ 11/ 13 1024.8F
LEWISETTA        1000   38 41   70/ 10/ 14 1024.3S
SOLOMONS ISLAND  1000      42                N/A

$$




USA.gov is the U.S. government's official web portal to all federal, state and local government web resources and services.